[[{"header":{"parameterUnit":"m.s-1","parameterCategory":2,"la1":30.2991,"la2":30.254,"lo1":-89.0895,"lo2":-89.0444,"dy":0.0017,"dx":0.0017,"nx":28,"ny":28,"refTime":"2024-03-13T03:00:00:Z","depth":"0","parameterNumber":2,"parameterNumberName":"U-component_of_CURRENTS"},"data":[0,0,0,0,0,0,0,0,0,0,0,0,0,0,0,0,0,0,0,0,0,0,0,0,0,0,0,0,0,0,0,0,0,0,0,0,0,0,0,0,0,0,0,0,0,0,0,0,0,0,0,0,0,0,0,0,0,0,-0.1962,-0.1962,0,-0.1982,-0.1982,-0.1982,-0.1944,-0.1943,-0.1942,-0.1941,-0.1868,-0.1867,-0.1866,0,0,0,0,0,0,0,0,0,0,0,0,0,-0.1835,-0.1838,-0.1962,-0.1962,-0.1963,-0.1982,-0.1982,-0.1982,-0.1944,-0.1943,-0.1942,-0.1941,-0.1868,-0.1867,-0.1866,0,0,0,0,0,0,0,0,0,0,0,0,0,-0.1874,-0.1839,-0.1962,-0.1948,-0.1947,-0.1982,-0.1982,-0.1982,-0.1945,-0.1943,-0.1942,-0.194,-0.1869,-0.1867,-0.1866,-0.1886,0,0,-0.1861,-0.186,0,0,0,0,0,0,0,0,-0.1872,-0.1878,-0.195,-0.1949,-0.1948,-0.1961,-0.191,-0.1946,-0.1945,-0.1943,-0.1941,-0.1939,-0.1893,-0.189,-0.1894,-0.1883,-0.188,-0.1861,-0.186,-0.1859,-0.1859,0,0,0,0,0,0,0,-0.1869,-0.1877,-0.1967,-0.195,-0.195,-0.1922,-0.1926,-0.1917,-0.1922,-0.1943,-0.1941,-0.1948,-0.1892,-0.1896,-0.1892,-0.1879,-0.1861,-0.186,-0.1859,-0.1858,-0.1908,-0.191,0,0,0,0,0,0,-0.1877,-0.1875,-0.1966,-0.1968,-0.1909,-0.1926,-0.1931,-0.1956,-0.1925,-0.192,-0.1949,-0.1946,-0.1899,-0.1894,-0.1889,-0.1929,-0.1859,-0.1858,-0.1857,-0.1906,-0.1909,-0.1911,0,0,0,0,0,0,-0.1875,-0.1886,-0.1965,-0.1922,-0.1931,-0.1931,-0.196,-0.1958,-0.1961,-0.1931,-0.1923,-0.1954,-0.1898,-0.1891,-0.1895,-0.1925,-0.1857,-0.1856,-0.1903,-0.1907,-0.191,-0.1997,0,0,0,0,0,0,-0.1872,-0.1886,-0.1906,-0.1924,-0.1934,-0.2,-0.1961,-0.1959,-0.1969,-0.1965,-0.1933,-0.1925,-0.1896,-0.1898,-0.1894,-0.1922,-0.1855,-0.1901,-0.1905,-0.1909,-0.1992,-0.2003,-0.2013,0,0,0,0,0,-0.1867,-0.1907,-0.1908,-0.1918,-0.1963,-0.2002,-0.2005,-0.1996,-0.1971,-0.1988,-0.1966,-0.1925,-0.1922,-0.1899,-0.1893,-0.1921,-0.1899,-0.1904,-0.1909,-0.1987,-0.2001,-0.2013,0,0,0,0,0,0,-0.1871,-0.1908,-0.1908,-0.196,-0.1984,-0.1996,-0.2008,-0.2004,-0.2002,-0.1989,-0.195,-0.1943,-0.1959,-0.1935,-0.191,-0.1952,-0.1906,-0.191,-0.1967,-0.198,-0.1991,-0.2024,-0.1853,0,0,0,0,0,-0.1883,-0.1911,-0.1947,-0.1984,-0.1998,-0.2003,-0.2014,-0.2015,-0.2017,-0.2014,-0.1994,-0.1977,-0.1979,-0.1973,-0.1969,-0.1988,-0.2003,-0.2006,-0.2017,-0.2026,-0.2052,-0.2108,-0.2127,-0.1928,-0.1928,-0.1928,0,0,-0.1883,-0.1915,-0.1924,-0.1984,-0.1993,-0.2037,-0.2005,-0.2032,-0.2068,-0.2006,-0.2033,-0.2012,-0.1994,-0.202,-0.2025,-0.1999,-0.2092,-0.2032,-0.204,-0.2061,-0.2115,-0.2135,-0.2152,-0.1931,-0.1931,-0.193,0,0,-0.1914,-0.1938,-0.1974,-0.2007,-0.2045,-0.2058,-0.207,-0.2093,-0.2099,-0.2127,-0.2098,-0.2105,-0.2092,-0.2101,-0.2099,-0.217,-0.2149,-0.216,-0.2237,-0.2291,-0.2308,-0.2323,-0.2374,-0.2393,-0.2163,-0.2163,-0.2163,0,-0.1912,-0.1978,-0.199,-0.2048,-0.2081,-0.2073,-0.2129,-0.2146,-0.2166,-0.2191,-0.2145,-0.2174,-0.214,-0.2201,-0.2217,-0.2195,-0.2222,-0.2183,-0.2306,-0.2321,-0.2335,-0.2384,-0.2403,-0.2168,-0.2167,-0.2167,-0.2166,0,-0.1978,-0.2031,-0.2057,-0.2125,-0.2168,-0.2208,-0.2246,-0.2277,-0.227,-0.2288,-0.2336,-0.2305,-0.2321,-0.2313,-0.2277,-0.2367,-0.2353,-0.2313,-0.2271,-0.236,-0.2406,-0.2425,-0.2175,-0.2173,-0.2172,-0.217,0,0,-0.1965,-0.2077,-0.2088,-0.2143,-0.2213,-0.2261,-0.2326,-0.2397,-0.2452,-0.2452,-0.2533,-0.2515,-0.249,-0.2489,-0.2454,-0.2496,-0.2595,-0.2447,-0.2447,-0.2498,-0.2727,-0.2589,-0.2595,-0.2576,-0.2579,-0.2582,-0.2722,0,-0.2007,-0.2126,-0.2178,-0.2286,-0.2344,-0.2386,-0.2457,-0.2522,-0.2549,-0.2623,-0.2615,-0.2652,-0.256,-0.2561,-0.2595,-0.2595,-0.2649,-0.2562,-0.2635,-0.2638,-0.2503,-0.2614,-0.2459,-0.2558,-0.274,-0.2743,-0.2745,0,-0.2055,-0.2133,-0.2243,-0.2382,-0.2414,-0.2476,-0.2598,-0.2659,-0.2754,-0.2779,-0.2816,-0.2807,-0.2856,-0.2763,-0.2828,-0.2776,-0.2768,-0.2767,-0.2772,-0.2628,-0.2535,-0.2499,-0.2586,-0.2572,-0.2774,-0.2772,-0.277,0,-0.204,-0.2185,-0.2274,-0.2318,-0.2462,-0.2524,-0.259,-0.2695,-0.274,-0.2864,-0.2898,-0.2973,-0.2978,-0.3006,-0.2953,-0.2908,-0.3042,-0.2972,-0.2859,-0.2849,-0.2725,-0.2696,-0.2804,-0.3058,-0.3058,-0.3057,-0.3057,0,-0.2067,-0.2142,-0.2271,-0.232,-0.2427,-0.2532,-0.2634,-0.2715,-0.2816,-0.2832,-0.2945,-0.2945,-0.3035,-0.3084,-0.3054,-0.301,-0.3113,-0.2911,-0.2887,-0.2748,-0.2721,-0.2704,-0.2718,-0.3063,-0.3061,-0.306,-0.306,0,-0.2035,-0.2118,-0.2219,-0.237,-0.2414,-0.248,-0.2603,-0.2653,-0.2774,-0.2799,-0.2824,-0.2955,-0.2977,-0.3074,-0.3139,-0.3096,-0.3039,-0.3064,-0.2892,-0.2843,-0.2653,-0.2677,-0.2741,-0.2668,-0.2965,-0.2963,-0.2961,0,-0.2035,-0.2078,-0.2215,-0.2236,-0.2295,-0.2396,-0.2435,-0.2587,-0.2592,-0.2714,-0.2683,-0.2805,-0.2777,-0.2911,-0.2909,-0.2941,-0.293,-0.2836,-0.2699,-0.2658,-0.2671,-0.266,-0.2594,-0.2592,-0.2587,-0.2583,-0.258,0,-0.2007,-0.2039,-0.2104,-0.215,-0.2192,-0.2259,-0.2305,-0.2315,-0.2416,-0.2439,-0.2424,-0.2451,-0.2557,-0.2543,-0.2667,-0.2632,-0.2737,-0.2745,-0.277,-0.2453,-0.2389,-0.2299,-0.2498,-0.2544,-0.2548,-0.255,-0.2552,-0.2554,-0.195,-0.1967,-0.2019,-0.206,-0.2084,-0.2086,-0.2094,-0.209,-0.2088,-0.2068,-0.2138,-0.2163,-0.2263,-0.2366,-0.2379,-0.2368,-0.2397,-0.2303,-0.2362,-0.2377,-0.2222,-0.2327,-0.2282,-0.2284,-0.2286,-0.2288,-0.2289,0,-0.1886,-0.1905,-0.1921,-0.1954,-0.1922,-0.1988,-0.1973,-0.1915,-0.1814,-0.1815,-0.1793,-0.1914,-0.1944,-0.2075,-0.2112,-0.2061,-0.2018,-0.204,-0.203,-0.1997,-0.2152,-0.2043,-0.1861,-0.1861,-0.1861,-0.1861,-0.1861,-0.1861,-0.1852,-0.1846,-0.1863,-0.18,-0.1793,-0.1741,-0.1714,-0.1585,-0.1548,-0.1474,-0.155,-0.1697,-0.1823,-0.2057,-0.2035,-0.1955,-0.194,-0.1842,-0.1917,-0.2062,-0.2092,-0.2121,-0.2023,-0.184,-0.184,-0.1649,-0.1648,-0.1647]},{"header":{"parameterUnit":"m.s-1","parameterCategory":2,"la1":30.2991,"la2":30.254,"lo1":-89.0895,"lo2":-89.0444,"dy":0.0017,"dx":0.0017,"nx":28,"ny":28,"refTime":"2024-03-13T03:00:00:Z","depth":"0","parameterNumber":3,"parameterNumberName":"V-component_of_CURRENTS"},"data":[0,0,0,0,0,0,0,0,0,0,0,0,0,0,0,0,0,0,0,0,0,0,0,0,0,0,0,0,0,0,0,0,0,0,0,0,0,0,0,0,0,0,0,0,0,0,0,0,0,0,0,0,0,0,0,0,0,0,0.0305,0.0306,0,0.0325,0.0326,0.0326,0.0345,0.0346,0.0346,0.0346,0.0399,0.0401,0.0402,0,0,0,0,0,0,0,0,0,0,0,0,0,0.0161,0.0164,0.0305,0.0306,0.0306,0.0325,0.0326,0.0326,0.0345,0.0346,0.0346,0.0346,0.0399,0.04,0.0402,0,0,0,0,0,0,0,0,0,0,0,0,0,0.0206,0.0165,0.0305,0.0319,0.032,0.0325,0.0326,0.0326,0.0345,0.0346,0.0346,0.0347,0.0399,0.04,0.0402,0.0402,0,0,0.0407,0.0408,0,0,0,0,0,0,0,0,0.0204,0.0211,0.0316,0.0318,0.032,0.0334,0.0294,0.0353,0.0345,0.0335,0.0346,0.0347,0.0381,0.0384,0.0385,0.0405,0.0407,0.0407,0.0408,0.0409,0.0409,0,0,0,0,0,0,0,0.0201,0.021,0.0312,0.0317,0.0319,0.0282,0.029,0.0305,0.0355,0.0336,0.0337,0.0341,0.0382,0.0383,0.0386,0.0408,0.0407,0.0409,0.041,0.041,0.0425,0.0424,0,0,0,0,0,0,0.0207,0.0208,0.0312,0.0313,0.0263,0.0284,0.0293,0.0328,0.0354,0.0358,0.034,0.0342,0.038,0.0384,0.0388,0.0381,0.0409,0.041,0.0411,0.0425,0.0425,0.0424,0,0,0,0,0,0,0.0204,0.0217,0.0311,0.0259,0.0269,0.0287,0.0326,0.0328,0.033,0.0357,0.0362,0.0339,0.0381,0.0386,0.0392,0.0384,0.0411,0.0413,0.0426,0.0425,0.0424,0.0372,0,0,0,0,0,0,0.02,0.0217,0.024,0.0261,0.0272,0.0299,0.0325,0.0328,0.0332,0.0334,0.0358,0.0363,0.0382,0.0389,0.0394,0.0386,0.0414,0.0427,0.0426,0.0425,0.0374,0.0369,0.0365,0,0,0,0,0,0.0196,0.0226,0.0242,0.0254,0.0307,0.0298,0.0299,0.0312,0.0331,0.0318,0.034,0.0363,0.0385,0.039,0.0395,0.0388,0.0427,0.0426,0.0425,0.0377,0.037,0.0365,0,0,0,0,0,0,0.0183,0.0231,0.025,0.0297,0.029,0.0301,0.0295,0.0308,0.0315,0.0321,0.0353,0.0359,0.0363,0.038,0.0385,0.0389,0.0411,0.041,0.0373,0.0367,0.0362,0.0366,0.0415,0,0,0,0,0,0.0191,0.0227,0.0246,0.0281,0.0273,0.0284,0.0284,0.0289,0.03,0.0304,0.032,0.0342,0.0361,0.0367,0.0381,0.0381,0.0419,0.0381,0.0376,0.0372,0.0378,0.0415,0.0415,0.0419,0.0419,0.0419,0,0,0.0205,0.0228,0.0256,0.0278,0.0276,0.0249,0.0284,0.0276,0.0266,0.0309,0.03,0.0326,0.0357,0.0357,0.036,0.037,0.0391,0.037,0.0367,0.0375,0.0414,0.0414,0.0414,0.0418,0.0419,0.0419,0,0,0.0188,0.0255,0.0243,0.0232,0.022,0.023,0.0224,0.0224,0.0236,0.023,0.0265,0.0284,0.0299,0.0322,0.0339,0.0317,0.0366,0.032,0.0298,0.0334,0.0334,0.0335,0.0386,0.0392,0.0316,0.0316,0.0316,0,0.0198,0.0187,0.0233,0.0189,0.0177,0.0215,0.0169,0.0188,0.0193,0.021,0.0217,0.0265,0.0285,0.0311,0.03,0.0308,0.0342,0.0316,0.0328,0.033,0.0331,0.0384,0.0391,0.0313,0.0314,0.0314,0.0314,0,0.0131,0.0126,0.0111,0.0085,0.0082,0.0053,0.0076,0.0085,0.0113,0.014,0.0172,0.0205,0.0239,0.0245,0.0265,0.0288,0.0314,0.0319,0.0344,0.0328,0.0384,0.0393,0.0309,0.031,0.0311,0.0312,0,0,0.0146,0.008,0.0072,0.0021,0.0022,0.0,0.0015,0.0028,0.0049,0.0077,0.0103,0.0139,0.0184,0.0206,0.0241,0.027,0.0306,0.0294,0.0297,0.0347,0.0401,0.0432,0.0445,0.0313,0.0314,0.0315,0.0437,0,0.0068,-0.0046,-0.0036,-0.0124,-0.0186,-0.013,-0.0124,-0.0087,-0.0023,0.0018,0.0094,0.0127,0.0165,0.0181,0.022,0.0288,0.0325,0.0274,0.0407,0.0412,0.0443,0.0454,0.047,0.0581,0.0446,0.0447,0.0448,0,-0.0023,-0.0091,-0.02,-0.0256,-0.0272,-0.0291,-0.0254,-0.024,-0.013,-0.0078,0.0006,0.0078,0.0149,0.0167,0.0296,0.0263,0.0327,0.0378,0.0384,0.0439,0.0458,0.0574,0.0602,0.0753,0.0462,0.046,0.046,0,-0.0102,-0.0201,-0.0294,-0.0319,-0.0363,-0.0371,-0.0362,-0.0269,-0.0249,-0.0122,-0.0086,0.0036,0.0084,0.0187,0.0316,0.0304,0.0457,0.0454,0.0549,0.0552,0.0607,0.0613,0.0799,0.0534,0.0534,0.0533,0.0533,0,-0.0198,-0.0275,-0.0344,-0.0405,-0.0487,-0.0462,-0.048,-0.0427,-0.0341,-0.0307,-0.0146,-0.0096,0.0087,0.0206,0.0316,0.0474,0.0465,0.0559,0.0587,0.0589,0.0592,0.0758,0.0812,0.0538,0.0537,0.0536,0.0535,0,-0.0274,-0.0322,-0.0449,-0.0521,-0.0539,-0.0591,-0.0594,-0.0588,-0.0482,-0.0424,-0.0393,-0.02,-0.0025,0.0169,0.0354,0.0468,0.0698,0.0661,0.0665,0.069,0.091,0.0958,0.1158,0.1209,0.0794,0.0795,0.0797,0,-0.0327,-0.0404,-0.054,-0.0606,-0.0642,-0.0702,-0.0727,-0.0669,-0.0642,-0.0492,-0.0473,-0.0281,-0.0122,0.0197,0.0429,0.067,0.076,0.0818,0.0793,0.0942,0.1017,0.1044,0.1073,0.0852,0.0854,0.0855,0.0856,0,-0.0422,-0.0469,-0.0567,-0.071,-0.0782,-0.0858,-0.0877,-0.0884,-0.0779,-0.0704,-0.0566,-0.0427,-0.0084,0.0231,0.0565,0.0689,0.0921,0.0851,0.1008,0.1086,0.1127,0.1182,0.0763,0.0868,0.0867,0.0866,0.0866,0.0865,-0.0475,-0.0562,-0.0684,-0.0814,-0.0899,-0.0971,-0.1016,-0.0989,-0.0954,-0.0809,-0.0667,-0.043,0.0059,0.0537,0.0709,0.1077,0.1015,0.1174,0.1225,0.1243,0.1282,0.0895,0.1022,0.1022,0.1022,0.1021,0.1021,0,-0.0543,-0.0636,-0.0769,-0.0924,-0.1024,-0.1048,-0.1085,-0.1083,-0.1028,-0.0871,-0.0711,-0.0196,0.0292,0.0731,0.1282,0.1468,0.1476,0.1545,0.1599,0.161,0.1285,0.1277,0.1462,0.1462,0.1462,0.1462,0.1461,0.1461,-0.0583,-0.0721,-0.0802,-0.0996,-0.1088,-0.1191,-0.1211,-0.1162,-0.1059,-0.0801,-0.0526,-0.0297,0.0378,0.1329,0.1844,0.1862,0.1998,0.1969,0.2039,0.1836,0.1806,0.1776,0.1784,0.2073,0.2074,0.2334,0.2337,0.2339]}],[{"header":{"parameterUnit":"m.s-1","parameterCategory":2,"la1":30.2991,"la2":30.254,"lo1":-89.0895,"lo2":-89.0444,"dy":0.0017,"dx":0.0017,"nx":28,"ny":28,"refTime":"2024-03-13T03:00:00:Z","depth":"2","parameterNumber":2,"parameterNumberName":"U-component_of_CURRENTS"},"data":[0,0,0,0,0,0,0,0,0,0,0,0,0,0,0,0,0,0,0,0,0,0,0,0,0,0,0,0,0,0,0,0,0,0,0,0,0,0,0,0,0,0,0,0,0,0,0,0,0,0,0,0,0,0,0,0,0,0,-0.1569,-0.1571,0,-0.1538,-0.1536,-0.1534,-0.1501,-0.1503,-0.1505,-0.1506,-0.1481,-0.1479,-0.1477,0,0,0,0,0,0,0,0,0,0,0,0,0,-0.1495,-0.1495,-0.1569,-0.1571,-0.1572,-0.1539,-0.1536,-0.1533,-0.1501,-0.1503,-0.1505,-0.1507,-0.1482,-0.1479,-0.1477,0,0,0,0,0,0,0,0,0,0,0,0,0,-0.1481,-0.1496,-0.1569,-0.1569,-0.157,-0.1539,-0.1536,-0.1533,-0.1501,-0.1503,-0.1506,-0.1508,-0.1483,-0.148,-0.1476,-0.1409,0,0,-0.1466,-0.1465,0,0,0,0,0,0,0,0,-0.1482,-0.1481,-0.1567,-0.1569,-0.1571,-0.1546,-0.1502,-0.1499,-0.15,-0.1503,-0.1506,-0.1509,-0.1516,-0.151,-0.1467,-0.1407,-0.1406,-0.1466,-0.1464,-0.1463,-0.1462,0,0,0,0,0,0,0,-0.1483,-0.1482,-0.1534,-0.1569,-0.1571,-0.1536,-0.1535,-0.1499,-0.1479,-0.1503,-0.1506,-0.1538,-0.1514,-0.147,-0.1467,-0.1406,-0.1466,-0.1463,-0.1461,-0.146,-0.1445,-0.1447,0,0,0,0,0,0,-0.1535,-0.1483,-0.1536,-0.1536,-0.1556,-0.1538,-0.1535,-0.1533,-0.148,-0.1481,-0.1536,-0.1537,-0.1474,-0.1471,-0.1466,-0.1544,-0.1463,-0.146,-0.1458,-0.1444,-0.1446,-0.1447,0,0,0,0,0,0,-0.1532,-0.1538,-0.1537,-0.1528,-0.1529,-0.1539,-0.1535,-0.1532,-0.1521,-0.1509,-0.1505,-0.1537,-0.1476,-0.1471,-0.1488,-0.1537,-0.1458,-0.1455,-0.1442,-0.1444,-0.1446,-0.1597,0,0,0,0,0,0,-0.1529,-0.1536,-0.1541,-0.1531,-0.1532,-0.1563,-0.1535,-0.153,-0.1546,-0.1547,-0.1508,-0.1505,-0.1478,-0.1493,-0.1484,-0.1532,-0.1453,-0.144,-0.1443,-0.1446,-0.159,-0.1604,-0.1617,0,0,0,0,0,-0.1526,-0.1526,-0.154,-0.1549,-0.1541,-0.1567,-0.1562,-0.1562,-0.1545,-0.1553,-0.1538,-0.1508,-0.1506,-0.1491,-0.1481,-0.1529,-0.1439,-0.1442,-0.1446,-0.1584,-0.1602,-0.1616,0,0,0,0,0,0,-0.1505,-0.1525,-0.154,-0.1549,-0.1587,-0.1572,-0.1565,-0.1573,-0.1554,-0.1555,-0.152,-0.1518,-0.1545,-0.1511,-0.1496,-0.1532,-0.1469,-0.1471,-0.1578,-0.1594,-0.1607,-0.1631,-0.145,0,0,0,0,0,-0.1508,-0.1511,-0.1545,-0.1565,-0.1565,-0.1564,-0.157,-0.1591,-0.1588,-0.1579,-0.1571,-0.1552,-0.1538,-0.1551,-0.1524,-0.1543,-0.1549,-0.1567,-0.1581,-0.1592,-0.1605,-0.1653,-0.1673,-0.1459,-0.1459,-0.1459,0,0,-0.1509,-0.1528,-0.153,-0.1563,-0.1556,-0.1601,-0.1566,-0.1595,-0.1661,-0.158,-0.163,-0.1588,-0.1548,-0.1576,-0.1587,-0.1567,-0.1665,-0.1597,-0.1607,-0.1613,-0.1659,-0.1681,-0.17,-0.1461,-0.1461,-0.146,0,0,-0.1521,-0.1519,-0.1521,-0.1573,-0.1624,-0.1629,-0.1654,-0.167,-0.1689,-0.1737,-0.1696,-0.1697,-0.168,-0.1677,-0.1665,-0.173,-0.1718,-0.1721,-0.1827,-0.1875,-0.1894,-0.1911,-0.199,-0.2012,-0.1746,-0.1746,-0.1747,0,-0.1525,-0.1564,-0.1536,-0.159,-0.1664,-0.1654,-0.1729,-0.1736,-0.1782,-0.1813,-0.1786,-0.1771,-0.1731,-0.1776,-0.1797,-0.1764,-0.1798,-0.1775,-0.1897,-0.1912,-0.1927,-0.2003,-0.2026,-0.1754,-0.1753,-0.1752,-0.1752,0,-0.1561,-0.1625,-0.1634,-0.1702,-0.1758,-0.1829,-0.188,-0.1916,-0.1931,-0.1958,-0.2004,-0.1946,-0.1945,-0.1933,-0.1879,-0.1962,-0.1958,-0.1897,-0.1865,-0.1958,-0.2032,-0.2053,-0.1765,-0.1762,-0.176,-0.1758,0,0,-0.1505,-0.1632,-0.1652,-0.1742,-0.1854,-0.1906,-0.1997,-0.2082,-0.2132,-0.2162,-0.2253,-0.2202,-0.2158,-0.214,-0.2083,-0.212,-0.2244,-0.2063,-0.2062,-0.2159,-0.2394,-0.2232,-0.2239,-0.2214,-0.2217,-0.222,-0.2423,0,-0.156,-0.1702,-0.176,-0.1934,-0.2012,-0.2086,-0.2164,-0.225,-0.2281,-0.2353,-0.2334,-0.2349,-0.2246,-0.223,-0.2265,-0.2223,-0.2299,-0.2197,-0.2274,-0.2277,-0.2134,-0.2256,-0.2038,-0.2184,-0.2443,-0.2446,-0.2448,0,-0.1578,-0.1701,-0.1865,-0.2074,-0.2105,-0.22,-0.2341,-0.2417,-0.2495,-0.2513,-0.2547,-0.252,-0.2563,-0.2454,-0.2508,-0.2452,-0.2447,-0.2429,-0.2435,-0.224,-0.2151,-0.2121,-0.2212,-0.2483,-0.248,-0.2477,-0.2475,0,-0.1553,-0.1777,-0.1922,-0.2011,-0.2206,-0.2289,-0.2372,-0.2458,-0.2488,-0.2604,-0.2616,-0.2693,-0.2684,-0.2717,-0.2635,-0.26,-0.2704,-0.2651,-0.2532,-0.2523,-0.2325,-0.2289,-0.2739,-0.2739,-0.2738,-0.2738,-0.2737,0,-0.1585,-0.1714,-0.1925,-0.2017,-0.2184,-0.2307,-0.2408,-0.2491,-0.256,-0.2562,-0.2667,-0.2653,-0.2738,-0.2775,-0.2748,-0.2689,-0.2798,-0.2584,-0.2565,-0.2371,-0.2339,-0.256,-0.2536,-0.2745,-0.2744,-0.2742,-0.2741,0,-0.1514,-0.1651,-0.1835,-0.2082,-0.2161,-0.2263,-0.2401,-0.242,-0.2506,-0.2523,-0.255,-0.2656,-0.2672,-0.2752,-0.2809,-0.2773,-0.2769,-0.2727,-0.2504,-0.2451,-0.2559,-0.2541,-0.268,-0.2676,-0.2673,-0.267,-0.2668,0,-0.149,-0.1571,-0.185,-0.1928,-0.2041,-0.2191,-0.2233,-0.2365,-0.2348,-0.2441,-0.2415,-0.2515,-0.2492,-0.2591,-0.2574,-0.2613,-0.2665,-0.2442,-0.2304,-0.2586,-0.2555,-0.2542,-0.2529,-0.215,-0.2144,-0.2139,-0.2135,0,-0.1447,-0.1523,-0.1653,-0.1823,-0.1921,-0.2043,-0.212,-0.2099,-0.217,-0.2191,-0.2181,-0.2212,-0.2286,-0.2225,-0.2302,-0.2267,-0.2423,-0.2329,-0.272,-0.2149,-0.2087,-0.2055,-0.206,-0.2088,-0.2092,-0.2096,-0.2098,-0.21,-0.138,-0.1434,-0.1558,-0.1703,-0.1809,-0.1859,-0.1845,-0.1876,-0.1859,-0.1836,-0.1923,-0.1924,-0.1989,-0.1966,-0.1921,-0.1931,-0.2073,-0.2026,-0.2043,-0.2066,-0.1918,-0.1847,-0.1781,-0.1784,-0.1786,-0.1788,-0.179,0,-0.131,-0.1344,-0.1435,-0.1574,-0.1574,-0.1732,-0.1722,-0.1647,-0.1558,-0.1601,-0.1603,-0.1511,-0.1502,-0.1581,-0.151,-0.1527,-0.1532,-0.148,-0.1482,-0.1528,-0.1569,-0.1396,-0.1121,-0.112,-0.1118,-0.1117,0,0,-0.126,-0.1266,-0.1303,-0.1295,-0.1383,-0.1376,-0.1336,-0.1273,-0.1254,-0.1202,-0.1217,-0.1382,-0.1478,-0.1276,-0.1252,-0.1169,-0.133,-0.1116,-0.1643,-0.1684,-0.1723,-0.1867,-0.1648,0,0,0,0,0]},{"header":{"parameterUnit":"m.s-1","parameterCategory":2,"la1":30.2991,"la2":30.254,"lo1":-89.0895,"lo2":-89.0444,"dy":0.0017,"dx":0.0017,"nx":28,"ny":28,"refTime":"2024-03-13T03:00:00:Z","depth":"2","parameterNumber":3,"parameterNumberName":"V-component_of_CURRENTS"},"data":[0,0,0,0,0,0,0,0,0,0,0,0,0,0,0,0,0,0,0,0,0,0,0,0,0,0,0,0,0,0,0,0,0,0,0,0,0,0,0,0,0,0,0,0,0,0,0,0,0,0,0,0,0,0,0,0,0,0,0.0096,0.0097,0,0.004,0.0038,0.0035,0.005,0.0053,0.0056,0.0058,0.0142,0.0142,0.0141,0,0,0,0,0,0,0,0,0,0,0,0,0,0.0008,0.0009,0.0096,0.0097,0.0099,0.004,0.0037,0.0035,0.0049,0.0053,0.0056,0.006,0.0142,0.0142,0.0141,0,0,0,0,0,0,0,0,0,0,0,0,0,-0.0011,0.0009,0.0096,0.0114,0.0116,0.0041,0.0037,0.0034,0.0048,0.0053,0.0057,0.0061,0.0143,0.0142,0.0141,0.0046,0,0,0.0138,0.0138,0,0,0,0,0,0,0,0,-0.0009,-0.001,0.011,0.0113,0.0116,0.0074,0.0038,0.0052,0.0047,0.0052,0.0058,0.0064,0.0143,0.0142,0.009,0.005,0.0054,0.0138,0.0138,0.0137,0.0137,0,0,0,0,0,0,0,-0.0008,-0.0008,0.0053,0.0111,0.0115,0.0055,0.0056,0.0037,0.006,0.0052,0.0058,0.0083,0.0143,0.009,0.0093,0.0055,0.0138,0.0138,0.0137,0.0137,0.0106,0.0106,0,0,0,0,0,0,0.0046,-0.0006,0.0055,0.0054,0.0086,0.0055,0.0056,0.0066,0.0057,0.0065,0.0079,0.0084,0.009,0.0094,0.0097,0.0136,0.0137,0.0137,0.0136,0.0106,0.0106,0.0106,0,0,0,0,0,0,0.0044,0.0051,0.0058,0.0039,0.0039,0.0056,0.0064,0.0063,0.005,0.008,0.0087,0.0076,0.0093,0.0098,0.0118,0.0136,0.0136,0.0136,0.0107,0.0106,0.0106,0.012,0,0,0,0,0,0,0.0041,0.005,0.0054,0.0043,0.0043,0.0036,0.0062,0.006,0.0066,0.0072,0.0078,0.0088,0.0097,0.0119,0.0118,0.0134,0.0135,0.0107,0.0107,0.0106,0.012,0.012,0.012,0,0,0,0,0,0.0038,0.0034,0.0054,0.0062,0.0055,0.0037,0.0027,0.004,0.0063,0.0043,0.0066,0.009,0.0116,0.0118,0.0116,0.0133,0.0107,0.0107,0.0106,0.012,0.012,0.012,0,0,0,0,0,0,0.0002,0.0037,0.0058,0.0068,0.007,0.0049,0.0028,0.0043,0.003,0.0047,0.0073,0.0082,0.0106,0.0106,0.0109,0.0121,0.0119,0.0117,0.013,0.013,0.013,0.0134,0.0134,0,0,0,0,0,-0.0001,0.0014,0.0029,0.0046,0.0033,0.0028,0.002,0.0035,0.0039,0.0036,0.0056,0.0073,0.0084,0.0103,0.01,0.0096,0.0121,0.0109,0.0109,0.0109,0.0109,0.0146,0.015,0.0103,0.0103,0.0103,0,0,0.0009,0.0023,0.0041,0.0041,0.0025,0.0002,0.0027,0.0022,0.0034,0.0049,0.0057,0.0068,0.0081,0.0087,0.0099,0.0104,0.0139,0.0108,0.0109,0.0109,0.0146,0.0151,0.0155,0.0103,0.0103,0.0103,0,0,-0.0021,0.002,-0.0014,-0.0008,-0.0006,-0.0007,0.0004,-0.0007,0.0011,0.0017,0.0044,0.0071,0.0071,0.0093,0.0103,0.0095,0.0133,0.0099,0.0111,0.0147,0.0152,0.0156,0.0217,0.0226,0.0107,0.0107,0.0107,0,-0.0017,-0.0045,-0.0025,-0.0061,-0.0043,-0.0004,-0.0035,-0.0024,-0.0006,0.0016,0.0036,0.0058,0.0073,0.0102,0.0106,0.0099,0.0131,0.0114,0.015,0.0154,0.0159,0.0219,0.023,0.0108,0.0108,0.0108,0.0108,0,-0.009,-0.0095,-0.0113,-0.013,-0.0121,-0.0124,-0.0085,-0.0068,-0.0027,0.0001,0.0045,0.0061,0.0083,0.0095,0.0099,0.0137,0.0155,0.0143,0.0155,0.0165,0.0228,0.0239,0.0109,0.0109,0.0108,0.0108,0,0,-0.0124,-0.016,-0.016,-0.0183,-0.0143,-0.0156,-0.0113,-0.0085,-0.0053,-0.0007,0.003,0.0061,0.009,0.0101,0.0121,0.0159,0.0223,0.0165,0.0167,0.0235,0.0327,0.0341,0.0355,0.022,0.0221,0.0222,0.0369,0,-0.0192,-0.0275,-0.0251,-0.0284,-0.033,-0.0241,-0.021,-0.0151,-0.0083,-0.0035,0.0036,0.0064,0.0091,0.01,0.0148,0.0194,0.0248,0.0186,0.0298,0.0302,0.0321,0.0366,0.0313,0.0438,0.0379,0.0381,0.0382,0,-0.0302,-0.0329,-0.0393,-0.0382,-0.0391,-0.0378,-0.0303,-0.0269,-0.0154,-0.01,-0.002,0.0038,0.0115,0.0119,0.0248,0.021,0.0269,0.0314,0.032,0.0333,0.0335,0.0413,0.046,0.04,0.0399,0.0398,0.0397,0,-0.0405,-0.0435,-0.0484,-0.0469,-0.0446,-0.0431,-0.0399,-0.0293,-0.0264,-0.0138,-0.0104,0.0021,0.0062,0.0166,0.0279,0.0264,0.0421,0.0409,0.049,0.0493,0.0469,0.0467,0.0496,0.0496,0.0496,0.0496,0.0495,0,-0.0516,-0.0554,-0.0534,-0.0556,-0.0579,-0.0522,-0.0515,-0.0444,-0.0351,-0.0313,-0.0158,-0.0107,0.0069,0.0188,0.0292,0.0439,0.044,0.051,0.0532,0.0474,0.0471,0.044,0.0431,0.0501,0.05,0.0499,0.0498,0,-0.0658,-0.0648,-0.0699,-0.0661,-0.0648,-0.0667,-0.0617,-0.0604,-0.0493,-0.0434,-0.0402,-0.0205,-0.0035,0.0154,0.0335,0.0441,0.058,0.0623,0.0563,0.0574,0.0633,0.0623,0.0749,0.075,0.0752,0.0753,0.0754,0,-0.0743,-0.0792,-0.0774,-0.0792,-0.078,-0.0785,-0.0778,-0.0689,-0.0659,-0.0499,-0.0479,-0.0286,-0.013,0.0181,0.0391,0.0624,0.0612,0.0705,0.0658,0.065,0.0659,0.0647,0.0635,0.065,0.065,0.065,0.065,0,-0.0875,-0.0863,-0.0889,-0.0927,-0.0939,-0.0946,-0.092,-0.092,-0.0796,-0.0714,-0.0568,-0.0427,-0.0104,0.0164,0.0476,0.0586,0.0671,0.0713,0.0729,0.058,0.0564,0.057,0.0561,0.065,0.065,0.065,0.065,0.065,-0.0932,-0.0992,-0.1019,-0.1055,-0.1076,-0.1078,-0.1079,-0.1027,-0.0975,-0.0813,-0.0673,-0.0436,-0.0142,0.0284,0.05,0.0692,0.0693,0.074,0.0737,0.0734,0.0683,0.0669,0.0767,0.0768,0.0769,0.0769,0.0769,0,-0.0998,-0.1071,-0.1133,-0.1182,-0.1212,-0.1185,-0.115,-0.1113,-0.1037,-0.0878,-0.0709,-0.04,-0.0067,0.0223,0.0537,0.074,0.0709,0.0754,0.0685,0.0684,0.0683,0.0626,0.0697,0.0698,0.0698,0.0698,0,0,-0.1045,-0.1136,-0.1183,-0.1264,-0.1294,-0.1313,-0.1278,-0.1184,-0.1061,-0.0902,-0.0724,-0.0466,-0.0079,0.0129,0.0386,0.0552,0.055,0.0546,0.0581,0.0466,0.0462,0.0653,0.0561,0,0,0,0,0]}],[{"header":{"parameterUnit":"m.s-1","parameterCategory":2,"la1":30.2991,"la2":30.254,"lo1":-89.0895,"lo2":-89.0444,"dy":0.0017,"dx":0.0017,"nx":28,"ny":28,"refTime":"2024-03-13T03:00:00:Z","depth":"4","parameterNumber":2,"parameterNumberName":"U-component_of_CURRENTS"},"data":[0,0,0,0,0,0,0,0,0,0,0,0,0,0,0,0,0,0,0,0,0,0,0,0,0,0,0,0,0,0,0,0,0,0,0,0,0,0,0,0,0,0,0,0,0,0,0,0,0,0,0,0,0,0,0,0,0,0,-0.0798,-0.0799,0,-0.0845,-0.0845,-0.0845,-0.0853,-0.0853,-0.0853,-0.0853,-0.0849,-0.0849,-0.0849,0,0,0,0,0,0,0,0,0,0,0,0,0,-0.0866,-0.0864,-0.0798,-0.0799,-0.08,-0.0845,-0.0845,-0.0845,-0.0853,-0.0853,-0.0853,-0.0853,-0.0849,-0.0849,-0.0849,0,0,0,0,0,0,0,0,0,0,0,0,0,-0.0862,-0.0863,-0.0798,-0.0813,-0.0815,-0.0845,-0.0845,-0.0845,-0.0853,-0.0853,-0.0853,-0.0853,-0.0849,-0.0849,-0.0849,-0.0847,0,0,-0.0848,-0.0848,0,0,0,0,0,0,0,0,-0.0862,-0.0859,-0.081,-0.0812,-0.0815,-0.0847,-0.0868,-0.0845,-0.0853,-0.0834,-0.0853,-0.0853,-0.0846,-0.0846,-0.085,-0.0846,-0.0846,-0.0848,-0.0848,-0.0848,-0.0848,0,0,0,0,0,0,0,-0.0862,-0.0858,-0.0812,-0.0811,-0.0814,-0.0869,-0.0867,-0.0864,-0.0835,-0.0836,-0.0838,-0.085,-0.0847,-0.085,-0.0849,-0.0846,-0.0848,-0.0848,-0.0848,-0.0848,-0.0848,-0.0848,0,0,0,0,0,0,-0.0857,-0.0857,-0.0811,-0.0814,-0.0844,-0.0867,-0.0865,-0.0833,-0.0836,-0.0839,-0.085,-0.085,-0.085,-0.085,-0.0849,-0.0863,-0.0848,-0.0847,-0.0847,-0.0848,-0.0848,-0.0848,0,0,0,0,0,0,-0.0858,-0.0851,-0.0809,-0.0844,-0.0843,-0.0866,-0.0831,-0.0834,-0.0855,-0.0848,-0.0849,-0.087,-0.085,-0.085,-0.0857,-0.0862,-0.0847,-0.0847,-0.0847,-0.0848,-0.0848,-0.088,0,0,0,0,0,0,-0.0858,-0.0849,-0.0835,-0.0841,-0.0841,-0.0838,-0.0831,-0.0835,-0.0863,-0.0865,-0.0865,-0.0864,-0.085,-0.0857,-0.0857,-0.0862,-0.0847,-0.0847,-0.0848,-0.0848,-0.0879,-0.0882,-0.0884,0,0,0,0,0,-0.086,-0.0841,-0.0833,-0.0829,-0.0814,-0.084,-0.0845,-0.086,-0.0865,-0.0878,-0.0874,-0.0865,-0.0858,-0.0858,-0.0857,-0.0862,-0.0847,-0.0847,-0.0848,-0.0878,-0.0881,-0.0884,0,0,0,0,0,0,-0.0853,-0.084,-0.0832,-0.0805,-0.0827,-0.0843,-0.0867,-0.0873,-0.0882,-0.0885,-0.0872,-0.087,-0.0875,-0.0866,-0.0866,-0.0861,-0.0849,-0.0849,-0.0872,-0.0875,-0.0877,-0.0889,-0.0847,0,0,0,0,0,-0.0846,-0.0831,-0.0835,-0.0818,-0.0835,-0.0854,-0.0871,-0.0878,-0.0887,-0.0893,-0.0891,-0.0884,-0.0873,-0.0874,-0.0864,-0.087,-0.089,-0.087,-0.0872,-0.0875,-0.0883,-0.0884,-0.0888,-0.0849,-0.0849,-0.0849,0,0,-0.0829,-0.0833,-0.0816,-0.0819,-0.0842,-0.0863,-0.0864,-0.0895,-0.0903,-0.089,-0.0904,-0.0895,-0.0876,-0.0875,-0.0876,-0.0872,-0.0909,-0.0875,-0.0877,-0.0884,-0.0885,-0.0889,-0.0892,-0.0849,-0.0849,-0.0849,0,0,-0.0833,-0.0808,-0.0816,-0.0838,-0.0879,-0.0886,-0.09,-0.0922,-0.0926,-0.0937,-0.0922,-0.0922,-0.0914,-0.09,-0.089,-0.0902,-0.0919,-0.0897,-0.0923,-0.0924,-0.0927,-0.0931,-0.102,-0.1031,-0.0901,-0.0901,-0.0901,0,-0.0815,-0.0821,-0.0828,-0.0862,-0.0884,-0.0899,-0.0925,-0.0928,-0.0945,-0.0958,-0.0945,-0.0937,-0.0923,-0.0917,-0.0917,-0.0908,-0.0941,-0.0914,-0.0928,-0.0931,-0.0934,-0.1024,-0.1036,-0.0902,-0.0902,-0.0902,-0.0902,0,-0.0846,-0.085,-0.0869,-0.0899,-0.0923,-0.0949,-0.0961,-0.098,-0.0986,-0.099,-0.0994,-0.0967,-0.0971,-0.0953,-0.0939,-0.0948,-0.098,-0.093,-0.0924,-0.094,-0.1035,-0.1046,-0.0904,-0.0904,-0.0903,-0.0903,0,0,-0.079,-0.0867,-0.0874,-0.0901,-0.0944,-0.0964,-0.0989,-0.1017,-0.1063,-0.1033,-0.1066,-0.1023,-0.1027,-0.1015,-0.0991,-0.098,-0.1042,-0.0969,-0.0968,-0.1067,-0.1119,-0.1068,-0.1076,-0.0989,-0.0989,-0.099,-0.1201,0,-0.0812,-0.0875,-0.0908,-0.0954,-0.0983,-0.101,-0.1048,-0.1074,-0.1099,-0.1134,-0.1082,-0.1108,-0.1042,-0.1064,-0.1034,-0.1041,-0.1063,-0.0995,-0.1081,-0.1086,-0.1042,-0.1082,-0.0992,-0.1209,-0.1212,-0.1214,-0.1215,0,-0.0834,-0.0876,-0.0929,-0.1,-0.1021,-0.1047,-0.1128,-0.1162,-0.121,-0.124,-0.1236,-0.1223,-0.1215,-0.1144,-0.1161,-0.1124,-0.1133,-0.1124,-0.1131,-0.1073,-0.1052,-0.1173,-0.1235,-0.1234,-0.1232,-0.1231,-0.123,0,-0.081,-0.0885,-0.0929,-0.0948,-0.1033,-0.1065,-0.1111,-0.1192,-0.1267,-0.1312,-0.1392,-0.1348,-0.1377,-0.1325,-0.1301,-0.1254,-0.1323,-0.1261,-0.1235,-0.1237,-0.1207,-0.1201,-0.1277,-0.1276,-0.1276,-0.1275,-0.1275,0,-0.0806,-0.0841,-0.0922,-0.094,-0.1007,-0.1073,-0.1169,-0.1224,-0.135,-0.1433,-0.1447,-0.1496,-0.1418,-0.1434,-0.137,-0.1353,-0.1391,-0.1265,-0.127,-0.1226,-0.1218,-0.122,-0.1211,-0.1283,-0.1282,-0.128,-0.1279,0,-0.076,-0.0822,-0.0869,-0.096,-0.0992,-0.1035,-0.1194,-0.1267,-0.1429,-0.1538,-0.1568,-0.1656,-0.1672,-0.1622,-0.1586,-0.149,-0.1447,-0.1432,-0.1476,-0.1476,-0.1364,-0.1354,-0.1456,-0.1455,-0.1455,-0.1454,-0.1454,0,-0.0742,-0.0764,-0.0853,-0.0878,-0.0912,-0.1005,-0.1067,-0.125,-0.1343,-0.1602,-0.1631,-0.1751,-0.1754,-0.1704,-0.1638,-0.1579,-0.1512,-0.1535,-0.1354,-0.138,-0.1375,-0.1366,-0.1357,-0.1454,-0.1453,-0.1453,-0.1453,0,-0.0687,-0.0724,-0.0757,-0.0808,-0.0858,-0.093,-0.1039,-0.1138,-0.1348,-0.1535,-0.1654,-0.168,-0.1723,-0.1653,-0.1644,-0.1562,-0.1526,-0.153,-0.1528,-0.1358,-0.1379,-0.1372,-0.1364,-0.1452,-0.1452,-0.1452,-0.1452,0,-0.0635,-0.0641,-0.0684,-0.0721,-0.0778,-0.0814,-0.09,-0.1022,-0.1171,-0.1481,-0.1496,-0.1604,-0.1697,-0.1653,-0.1614,-0.1564,-0.1509,-0.1419,-0.1422,-0.1423,-0.1297,-0.1311,-0.1388,0,0,0,0,0,-0.0577,-0.0575,-0.0595,-0.0629,-0.0675,-0.0707,-0.086,-0.0968,-0.1205,-0.1249,-0.1397,-0.1418,-0.1449,-0.1504,-0.1432,-0.1565,-0.1482,-0.1477,-0.1371,-0.1445,-0.1446,-0.129,0,0,0,0,0,0,-0.054,-0.0552,-0.0561,-0.0534,-0.0538,-0.0584,-0.0666,-0.0817,-0.0882,-0.1123,-0.1131,-0.1322,-0.1339,-0.1443,-0.1392,-0.1408,-0.1312,-0.1562,-0.1559,-0.1444,-0.1445,-0.1446,-0.1286,0,0,0,0,0]},{"header":{"parameterUnit":"m.s-1","parameterCategory":2,"la1":30.2991,"la2":30.254,"lo1":-89.0895,"lo2":-89.0444,"dy":0.0017,"dx":0.0017,"nx":28,"ny":28,"refTime":"2024-03-13T03:00:00:Z","depth":"4","parameterNumber":3,"parameterNumberName":"V-component_of_CURRENTS"},"data":[0,0,0,0,0,0,0,0,0,0,0,0,0,0,0,0,0,0,0,0,0,0,0,0,0,0,0,0,0,0,0,0,0,0,0,0,0,0,0,0,0,0,0,0,0,0,0,0,0,0,0,0,0,0,0,0,0,0,-0.018,-0.018,0,-0.0109,-0.0108,-0.0107,-0.0109,-0.011,-0.0111,-0.0112,-0.0041,-0.0038,-0.0035,0,0,0,0,0,0,0,0,0,0,0,0,0,-0.0144,-0.0145,-0.018,-0.018,-0.0179,-0.0109,-0.0108,-0.0107,-0.0109,-0.011,-0.0112,-0.0113,-0.0042,-0.0039,-0.0035,0,0,0,0,0,0,0,0,0,0,0,0,0,-0.0122,-0.0146,-0.0181,-0.0174,-0.0173,-0.011,-0.0108,-0.0106,-0.0108,-0.011,-0.0112,-0.0114,-0.0043,-0.0039,-0.0035,0.0031,0,0,-0.0021,-0.0019,0,0,0,0,0,0,0,0,-0.0124,-0.0123,-0.0175,-0.0174,-0.0173,-0.0122,-0.0069,-0.0062,-0.0108,-0.013,-0.0112,-0.0115,-0.0069,-0.0062,-0.0041,0.0034,0.0037,-0.002,-0.0017,-0.0015,-0.0014,0,0,0,0,0,0,0,-0.0125,-0.0125,-0.0149,-0.0175,-0.0173,-0.0115,-0.0115,-0.0067,-0.0087,-0.0128,-0.0129,-0.0125,-0.0068,-0.0045,-0.0039,0.0038,-0.002,-0.0016,-0.0013,-0.0012,0.0115,0.0116,0,0,0,0,0,0,-0.0147,-0.0128,-0.0152,-0.0147,-0.0156,-0.0115,-0.0115,-0.0134,-0.0088,-0.0084,-0.0123,-0.0125,-0.0052,-0.0044,-0.0037,0.0,-0.0015,-0.0011,-0.0009,0.0115,0.0115,0.0116,0,0,0,0,0,0,-0.0147,-0.0151,-0.0155,-0.0136,-0.0133,-0.0115,-0.0136,-0.0132,-0.0116,-0.0085,-0.008,-0.0113,-0.0053,-0.0043,0.0,0.0004,-0.0009,-0.0005,0.0114,0.0115,0.0116,0.0102,0,0,0,0,0,0,-0.0147,-0.0152,-0.0178,-0.0139,-0.0136,-0.012,-0.0134,-0.0129,-0.0112,-0.0114,-0.0074,-0.0069,-0.0054,-0.0007,0.0005,0.001,-0.0001,0.0113,0.0114,0.0115,0.0101,0.0102,0.0103,0,0,0,0,0,-0.0146,-0.0167,-0.018,-0.0183,-0.0172,-0.012,-0.0111,-0.0101,-0.011,-0.0095,-0.0074,-0.0071,0.0008,-0.0002,0.0011,0.0018,0.0112,0.0114,0.0115,0.0101,0.0102,0.0103,0,0,0,0,0,0,-0.017,-0.0168,-0.0182,-0.0206,-0.017,-0.0121,-0.0109,-0.0097,-0.0065,-0.0072,-0.0048,-0.004,-0.0007,0.0016,0.0004,0.0057,0.0056,0.006,0.0041,0.0042,0.0043,0.0036,0.0002,0,0,0,0,0,-0.0188,-0.0208,-0.0179,-0.02,-0.018,-0.0144,-0.0125,-0.0112,-0.0077,-0.0066,-0.0038,-0.0012,0.0015,0.0034,0.0064,0.0111,0.0131,0.0119,0.012,0.012,0.0124,0.0157,0.0161,0.0121,0.0121,0.0121,0,0,-0.0215,-0.0207,-0.0228,-0.0206,-0.0178,-0.0146,-0.0136,-0.0102,-0.0084,-0.006,-0.0026,-0.0003,0.0027,0.0063,0.008,0.0081,0.0144,0.0122,0.0122,0.0126,0.0159,0.0163,0.0166,0.0122,0.0122,0.0121,0,0,-0.0229,-0.0254,-0.0256,-0.0223,-0.0178,-0.015,-0.0141,-0.0086,-0.0072,-0.0026,-0.002,0.001,0.0065,0.0083,0.0098,0.0129,0.0144,0.013,0.0135,0.0167,0.0171,0.0174,0.0209,0.0216,0.0133,0.0133,0.0133,0,-0.0265,-0.0264,-0.0243,-0.0211,-0.0198,-0.0154,-0.0134,-0.0097,-0.004,-0.0029,-0.0022,0.0046,0.0074,0.0106,0.0111,0.013,0.0149,0.0127,0.0167,0.0171,0.0175,0.021,0.0217,0.0133,0.0133,0.0133,0.0133,0,-0.0247,-0.0259,-0.0245,-0.0212,-0.0186,-0.0159,-0.011,-0.0081,-0.006,-0.0029,0.0011,0.0059,0.0092,0.0107,0.0122,0.0156,0.0162,0.016,0.0162,0.0178,0.0214,0.0222,0.0132,0.0132,0.0132,0.0133,0,0,-0.0299,-0.0255,-0.025,-0.0258,-0.0191,-0.0176,-0.0133,-0.0092,-0.0084,-0.0018,-0.0004,0.0062,0.0083,0.0103,0.0127,0.0164,0.0211,0.0172,0.0174,0.0202,0.0284,0.0267,0.0274,0.0211,0.0212,0.0213,0.0301,0,-0.0298,-0.0277,-0.0241,-0.0239,-0.0232,-0.019,-0.0165,-0.0124,-0.0081,-0.0049,0.001,0.0039,0.0082,0.009,0.0139,0.0186,0.023,0.0188,0.0271,0.0273,0.0251,0.0282,0.0217,0.0307,0.0309,0.031,0.0311,0,-0.0275,-0.0277,-0.0277,-0.0289,-0.0281,-0.0269,-0.0248,-0.0218,-0.0149,-0.0117,-0.0056,-0.0008,0.0064,0.0087,0.0206,0.0174,0.0232,0.0277,0.0281,0.0274,0.027,0.0289,0.0326,0.0325,0.0323,0.0322,0.0322,0,-0.0318,-0.0306,-0.0328,-0.0323,-0.0308,-0.0313,-0.0304,-0.0244,-0.0235,-0.016,-0.0139,-0.0041,0.0002,0.0095,0.0207,0.0205,0.0327,0.0333,0.0379,0.0378,0.0373,0.0368,0.0417,0.0416,0.0416,0.0416,0.0416,0,-0.0329,-0.0349,-0.0361,-0.0373,-0.0418,-0.0379,-0.04,-0.0364,-0.0318,-0.0304,-0.0186,-0.0144,0.0006,0.01,0.0196,0.0314,0.0325,0.039,0.0402,0.0366,0.036,0.0379,0.0373,0.0419,0.0419,0.0418,0.0417,0,-0.0358,-0.0359,-0.0401,-0.0422,-0.0438,-0.047,-0.0485,-0.049,-0.0425,-0.0399,-0.0378,-0.0223,-0.0078,0.0065,0.0221,0.0295,0.0403,0.0437,0.0391,0.0397,0.0441,0.0434,0.0512,0.0512,0.0512,0.0512,0.0512,0,-0.0367,-0.039,-0.0455,-0.0498,-0.0512,-0.0557,-0.0583,-0.0553,-0.0551,-0.0442,-0.0436,-0.0277,-0.0161,0.0057,0.0209,0.0397,0.0417,0.047,0.0466,0.0448,0.0452,0.0445,0.0437,0.0513,0.0513,0.0513,0.0513,0,-0.0396,-0.0422,-0.0461,-0.0552,-0.0607,-0.0667,-0.0698,-0.0712,-0.0653,-0.0603,-0.0469,-0.031,-0.0142,0.0057,0.02,0.0331,0.0434,0.0472,0.0473,0.047,0.045,0.0452,0.0445,0.0513,0.0513,0.0513,0.0513,0,-0.0419,-0.0461,-0.0519,-0.0597,-0.0674,-0.0735,-0.0757,-0.0739,-0.0728,-0.0603,-0.056,-0.0336,-0.0201,0.0023,0.0151,0.0284,0.0325,0.0355,0.0363,0.0364,0.0292,0.0243,0.0261,0,0,0,0,0,-0.0432,-0.0479,-0.0559,-0.0642,-0.0717,-0.0758,-0.0809,-0.0812,-0.0767,-0.0688,-0.062,-0.0453,-0.0185,-0.0056,0.0074,0.0141,0.0328,0.0296,0.0359,0.0516,0.0515,0.0454,0,0,0,0,0,0,-0.0444,-0.0512,-0.0556,-0.0654,-0.0712,-0.0791,-0.0824,-0.0802,-0.0756,-0.068,-0.0541,-0.043,-0.0182,-0.0254,0.0081,0.0126,0.018,0.0431,0.0433,0.0516,0.0515,0.0515,0.0452,0,0,0,0,0]}]]